DELTA 1 DEB, 10838

Orbit data source: Space-Track

DELTA 1 DEB, 10838 is space debris in SSO originally from a launch on Thu, 29 Jul 1976 UTC launched from the Air Force Western Test Range (AFWTR). Debris objects in space refer to the collection of defunct objects orbiting the Earth. Examples of debris include non-operational satellites, rocket bodies, and fragments generated from explosions, collisions, or faulty payload assembly.

Loading next visibility...
Identifier
10838, 1976-077CJ
Orbit
SSO
Country
Flag of USUS
Related business
Manufacturer
Unknown
Mission
Spacecraft
Bus & Motor
Unknown
Mass
Unknown
Launch date (UTC)
1976-07-29 (50 years ago)
Launch vehicle
Unknown
Launch site
Air Force Western Test Range (AFWTR)
Object type
Payload
Rocket body
Debris
Shape & HBR
Unknown shape, 0.2 m
Radar Cross Section
Small (<0.1 m²)

Expand to show TLE details & history
Last TLE update: 7 hours ago

TLE from 7 hours ago
0 DELTA 1 DEB
1 10838U 76077CJ  26118.94573072 -.00000016  00000-0  19431-3 0  9991
2 10838 101.5792 132.9318 0039663 253.5811 170.0787 12.40882849252977
Epoch: 2026-04-28T22:41Z
TLE epoch observation values (Epoch: 2026-04-28T22:41:51.134Z)
Latitude
61.55363°
Longitude
-86.55397°
Altitude
1,544.014 km
Speed
7.086 km/s
True Right ascension
07h 23m 17s
True Declination
61° 25' 25"
Sunlit
Object was in daylight at epoch
Visualization orbit readout
Latitude
Unknown
Longitude
Unknown
Altitude
Unknown
Speed
Unknown
Apparent Right ascension
Unknown
Apparent Declination
Unknown
Sunlit
N/A
Visualization observer readout
Local Sidereal Time
13:04:31
Azimuth
Unknown
Elevation
Unknown
Doppler factor
Unknown
Orbital elements
Apogee altitude
1,531.66 km
Perigee altitude
1,469.163 km
Semi-major axis
7,878.549 km
Eccentricity
0.00397
Inclination
101.5792°
RAAN
132.9318°
Arg. of periapsis
253.5811°
True anomaly
170.15663°
Mean anomaly
170.0787°
Eccentric anomaly
170.1177°
Mean motion
3.10366 °/min
Orbital period
115.99 mins
BSTAR
0.00019431
Loading maneuver chart data...
Computing Atmospheric mass density...
Loading historical data...
Loading historical data...
Loading historical data...
Loading historical data...
Loading historical data...
Loading historical data...
Loading historical data...

Documentation

Showing up to 5 results
|